Regional Weather Roundup
Issued by NWS

Home | Current Version | Previous Version | Graphics & Text | Print | Product List | Glossary On
Versions: 1 2 3 4 5 6 7 8 9 10 11 12 13 14 15 16 17 18 19 20 21 22 23 24 25 26 27 28 29 30 31 32 33 34 35 36 37 38 39 40 41 42 43 44 45 46 47 48 49 50
351
ASUS45 KTFX 021010
RWRMT
MONTANA REGIONAL WEATHER ROUNDUP
NATIONAL WEATHER SERVICE GREAT FALLS MT
400 AM MDT MON MAY 02 2016

NOTE: "FAIR" INDICATES FEW OR NO CLOUDS BELOW 12000 FEET WITH NO
SIGNIFICANT WEATHER AND/OR OBSTRUCTIONS TO VISIBILITY.

MTZ001>007-043-021100-
WEST OF THE DIVIDE

CITY           SKY/WX    TMP DP  RH WIND       PRES   REMARKS
KALISPELL      CLEAR     36  36 100 CALM      30.15S
MISSOULA       CLEAR     41  34  76 E3        30.19R
BUTTE          CLEAR     29  24  82 SE6       30.22F WCI  23
MULLAN PASS    CLEAR     46  28  49 SE9G17    30.19S
ANACONDA         N/A     36  28  75 SW9       30.21S WCI  29
DEER LODGE       N/A     30  27  86 CALM      30.22S
EUREKA           N/A     37  34  87 CALM      30.17S
HAMILTON         N/A     39  36  87 SE3       30.17R
LIBBY            N/A     37  34  87 CALM      30.16S
PLAINS           N/A     38  33  82 CALM      30.15
THOMPSON FALLS   N/A     36  32  85 CALM      30.19R
$$

MTZ008-052>055-021100-
SOUTHWEST MONTANA

CITY           SKY/WX    TMP DP  RH WIND       PRES   REMARKS
BOZEMAN        CLEAR     36  28  73 CALM      30.21R
DILLON         CLEAR     32  26  78 SE5       30.21R
ENNIS          CLEAR     32  28  86 CALM      30.27S
TWIN BRIDGES     N/A     34  23  64 NE1       30.17
$$

MTZ009-010-012-014-046-048-049-054-021100-
EAST SLOPES AND CENTRAL MONTANA

CITY           SKY/WX    TMP DP  RH WIND       PRES   REMARKS
CUT BANK       CLEAR     33  30  88 W6        30.18S WCI  28
GREAT FALLS    CLEAR     35  31  85 SW10      30.18S WCI  27
HELENA         CLEAR     42  33  70 CALM      30.20S
CHOTEAU          N/A     39  34  81 SW6       30.19S
CONRAD           N/A     32  31  96 E3        30.17F
$$

MTZ011-013-016-021-045-047-050-051-021100-
NORTH CENTRAL MONTANA

CITY           SKY/WX    TMP DP  RH WIND       PRES   REMARKS
HAVRE          CLOUDY    36  34  92 SW7       30.16R WCI  30
LEWISTOWN      CLOUDY    36  28  73 S6        30.19F WCI  31
N BAR RANCH      N/A     37  28  70 W7        30.21S
CHINOOK          N/A     39  37  93 CALM      30.16S
$$

MTZ017>020-022>027-061-062-021100-
NORTHEAST MONTANA

CITY           SKY/WX    TMP DP  RH WIND       PRES   REMARKS
GLASGOW        PTCLDY    46  34  62 W7        30.12F
JORDAN           N/A     38  35  89 W6        30.15F
SIDNEY         CLOUDY    55  30  38 W12       30.09F
WOLF POINT     CLOUDY    46  36  68 SW9       30.11F
PLENTYWOOD       N/A     48  34  57 NW3       30.07F
POPLAR           N/A     46  36  66 SW6       30.11S
SCOBEY           N/A     48  29  48 W1        30.08S
$$

MTZ028>42-056>058-021100-
SOUTHCENTRAL AND SOUTHEAST MONTANA

CITY           SKY/WX    TMP DP  RH WIND       PRES   REMARKS
BAKER          PTCLDY    39  31  72 CALM      30.16F
BILLINGS       CLEAR     42  32  67 SW15      30.19S
LIVINGSTON     CLOUDY    29  24  82 VRB3      30.22S
MILES CITY     CLOUDY    43  35  73 S3        30.16F
EKALAKA          N/A     40  25  55 CALM      30.13
FORSYTH          N/A     41  36  81 CALM      30.17S
LAUREL           N/A     36  25  65 SW1       30.15F
ROUNDUP          N/A     36  29  76 S9        30.08F WCI  29
$$

REGIONAL REPORTS...DAKOTAS

CITY           SKY/WX    TMP DP  RH WIND       PRES   REMARKS
WILLISTON      CLOUDY    52  34  50 W16       30.05F
MINOT          LGT RAIN  55  36  48 S8        29.98F
DICKINSON      MOCLDY    43  33  68 W10       30.09F
BEACH            N/A     41  32  70 SW9       30.16S
CROSBY         MOCLDY    54  32  43 W15       30.03F
WATFORD CITY   CLOUDY    48  34  57 SW13      30.06F
BISMARCK       CLOUDY    46  33  60 SW3       30.08F
GRAND FORKS    CLOUDY    42  31  64 S5        30.05F
FARGO          MOCLDY    45  31  58 CALM      30.07F
BUFFALO SD       N/A     39  29  67 N6        30.09S
RAPID CITY     CLEAR     35  28  75 W7        30.17F WCI  29
$$

REGIONAL REPORTS...WYOMING/IDAHO/WASHINGTON

CITY           SKY/WX    TMP DP  RH WIND       PRES   REMARKS
GILLETTE       CLEAR     35  29  78 S8        30.20S WCI  29
SHERIDAN       CLEAR     33  28  81 CALM      30.18F
BUFFALO WY       N/A    N/A N/A N/A MISG      30.20F
CODY           CLEAR     41  27  56 W8        30.21F
YELLOWSTONE LA   N/A     22  17  81 CALM      30.29F
IDAHO FALLS    CLEAR     36  24  62 CALM      30.21R
SALMON         CLEAR     34  28  80 CALM      30.19R
BOISE          CLEAR     51  37  58 SE8       30.09R
SPOKANE        CLEAR     53  40  61 NE7       30.07R
$$

REGIONAL REPORTS...ALBERTA

CITY           SKY/WX    TMP DP  RH WIND       PRES   REMARKS
EDMONTON       PTCLDY    50  37  62 SW6       30.06S
CALGARY        CLEAR     45  28  53 SW2       30.14R
LETHBRIDGE     CLEAR     36  32  87 W6        30.14S WCI  31
MEDICINE HAT   CLEAR     43  37  81 SW8       30.13S
WATERTON GATE    N/A     39  30  70 SW9         N/A
CARDSTON         N/A     39  30  70 S3          N/A
MILK RIVER       N/A     36  32  87 W5          N/A
ONEFOUR          N/A     43  30  61 N1          N/A
$$

REGIONAL REPORTS...SASKATCHEWAN

CITY           SKY/WX    TMP DP  RH WIND       PRES   REMARKS
SWIFT CURRENT  CLEAR     45  36  70 SW13      30.08S
REGINA         PTCLDY    36  32  87 W3        30.02S
SASKATOON      PTCLDY    41  34  75 SW5       30.03S
CYPRESS HILLS    N/A     45  30  57 W2          N/A
ROCKGLEN         N/A     45  34  65 W14         N/A
ASSINIBOIA       N/A     41  36  81 S3          N/A
$$




USA.gov is the U.S. government's official web portal to all federal, state and local government web resources and services.